Location: Mascot Post Office (historical)
(40.2645°N, 99.5462°W)
Time: 02:23:12
(UTC+00:00)

Cosmos 2151 Rocket - Pass Details

Date: 14 July 2020
Orbit: 616 x 643 km, 82.5° (Epoch: 14 August)

Event Time Altitude Azimuth Distance (km) Brightness Sun altitude
Rises 10:41:30 0° 180° (S) 2,934 6.7 -7.1°
Reaches altitude 10° 10:43:45 10° 177° (S) 2,027 5.9 -6.8°
Maximum altitude 10:48:13 68° 95° (E) 689 4.0 -6.1°
Drops below altitude 10° 10:52:42 10° 13° (NNE) 2,030 7.0 -5.4°
Sets 10:54:57 0° 11° (N) 2,939 7.8 -5.0°
